CZ-6A DEB, 54291

Orbit data source: Space-Track

CZ-6A DEB, 54291 is space debris in SSO originally from a launch on Fri, 11 Nov 2022 UTC launched from the Taiyaun Space Center, China (TSC). Debris objects in space refer to the collection of defunct objects orbiting the Earth. Examples of debris include non-operational satellites, rocket bodies, and fragments generated from explosions, collisions, or faulty payload assembly.

Loading next visibility...
Identifier
54291, 2022-151AJ
Orbit
SSO
Country
Flag of CNCN / PRC
Related business
Manufacturer
SAST
Mission
Spacecraft
Bus & Motor
Unknown
Mass
Unknown
Launch date (UTC)
2022-11-11 (3 years ago)
Launch vehicle
Unknown
Launch site
Taiyaun Space Center, China (TSC)
Object type
Payload
Rocket body
Debris
Shape & HBR
Unknown shape, 0.1 m
Radar Cross Section
Small (<0.1 m²)

Expand to show TLE details & history
Last TLE update: 19 hours ago

TLE from 19 hours ago
0 CZ-6A DEB
1 54291U 22151AJ  26129.90153914  .00000358  00000-0  23849-3 0  9999
2 54291  98.8623 122.0644 0081575  64.3061 296.6502 14.05745956178512
Epoch: 2026-05-09T21:38Z
TLE epoch observation values (Epoch: 2026-05-09T21:38:12.981Z)
Latitude
-0.00008°
Longitude
-70.202°
Altitude
850.703 km
Speed
7.441 km/s
True Right ascension
08h 08m 15s
True Declination
0° 00' 00"
Sunlit
Object was in daylight at epoch
Visualization orbit readout
Latitude
Unknown
Longitude
Unknown
Altitude
Unknown
Speed
Unknown
Apparent Right ascension
Unknown
Apparent Declination
Unknown
Sunlit
N/A
Visualization observer readout
Local Sidereal Time
00:22:00
Azimuth
Unknown
Elevation
Unknown
Doppler factor
Unknown
Orbital elements
Apogee altitude
930.286 km
Perigee altitude
812.014 km
Semi-major axis
7,249.287 km
Eccentricity
0.00816
Inclination
98.8623°
RAAN
122.0644°
Arg. of periapsis
64.3061°
True anomaly
295.81092°
Mean anomaly
296.6502°
Eccentric anomaly
296.23094°
Mean motion
3.51642 °/min
Orbital period
102.38 mins
BSTAR
0.00023849
Loading maneuver chart data...
Computing Atmospheric mass density...
Loading historical data...
Loading historical data...
Loading historical data...
Loading historical data...
Loading historical data...
Loading historical data...
Loading historical data...

Documentation

Showing up to 5 results
|